Regional Weather Roundup
Issued by NWS Huntsville, AL

Home | Current Version | Previous Version | Text Only | Print | Product List | Glossary On
Versions: 1 2 3 4 5 6 7 8 9 10 11 12 13 14 15 16 17 18 19 20 21 22 23 24 25 26 27 28 29 30 31 32 33 34 35 36 37 38 39 40 41 42 43 44 45 46 47 48 49 50
000
ASUS44 KHUN 281610
RWRHUN

WEATHER ROUNDUP FOR THE TENNESSEE VALLEY
NATIONAL WEATHER SERVICE HUNTSVILLE AL
1100 AM CDT THU MAY 28 2015

ALZ001>004-281700-
NORTHWEST ALABAMA

CITY           SKY/WX    TMP DP  RH WIND       PRES   REMARKS
COURTLAND HCN    N/A     72 N/A N/A E5          N/A
BANKHEAD NF      N/A     72  68  86 E1          N/A
RUSSELLVILLE     N/A     70 N/A N/A MISG        N/A
SHOALS AIRPORT CLOUDY    72  66  81 SE6       30.21S
SHOALS TVA RES   N/A     70 N/A N/A MISG        N/A
$$

ALZ005>007-016-281700-
NORTH CENTRAL ALABAMA

CITY           SKY/WX    TMP DP  RH WIND       PRES   REMARKS
CULLMAN AG STN   N/A     72 N/A N/A SE3         N/A
DECATUR AP     CLOUDY    73  67  81 SE5       30.21F
HUNTSVILLE AP  PTSUNNY   76  68  76 E6        30.21F
HUN NWS/UAH      N/A     76  65  70 S5          N/A
MERIDIANVILLE  CLOUDY    73  61  64 SE5       30.22F
REDSTONE ARSN  CLOUDY    73  68  83 VRB3      30.20F
VINEMONT AP    CLOUDY    73  67  79 CALM      30.23F
$$

ALZ008>010-281700-
NORTHEAST ALABAMA

CITY           SKY/WX    TMP DP  RH WIND       PRES   REMARKS
ALBERTVILLE    CLOUDY    72  72 100 E3        30.21F
FORT PAYNE     CLOUDY    72  61  68 SE6       30.22S
SCOTTSBORO HCN   N/A     70 N/A N/A MISG        N/A
VALLEY HEAD      N/A     70 N/A N/A MISG        N/A
$$

TNZ076-096-097-281700-
SOUTHEASTERN MIDDLE TENNESSEE

CITY           SKY/WX    TMP DP  RH WIND       PRES   REMARKS
TULLAHOMA      SUNNY     73  63  68 CALM      30.24S
WINCHESTER     MOSUNNY   73  64  73 SE5       30.23F
$$

...SURROUNDING SITES...

CITY           SKY/WX    TMP DP  RH WIND       PRES   REMARKS
ATLANTA        PTSUNNY   78  66  66 SE7       30.23S
ANNISTON       PTSUNNY   77  68  73 VRB5      30.21S
BIRMINGHAM     PTSUNNY   77  70  79 VRB5      30.21F
CHATTANOOGA    CLOUDY    72  65  78 SE5       30.25R
CORINTH        CLOUDY    70  64  83 SE5       30.18S
DALTON         PTSUNNY   70  68  94 N5        30.24S
GADSDEN        CLOUDY   N/A N/A N/A NE5       30.20S
GOLDEN TRNGL   PTSUNNY   73  68  83 SE5       30.15F
HALEYVILLE     CLOUDY    71  69  93 CALM      30.23S
JACKSON TN     CLOUDY    71  66  84 VRB3      30.17F
LEWISBURG      FAIR      74  64  70 SE5       30.21F
MEMPHIS        CLOUDY    77  65  66 SE6       30.16R
NASHVILLE      PTSUNNY   75  67  76 E6        30.22S
OXFORD MS      CLOUDY    72  64  78 SE7       30.18S
ROME           PTSUNNY   74  66  76 CALM      30.23S
SAVANNAH       CLOUDY    72  32  23 CALM      30.20S
TUPELO         CLOUDY    71  66  84 SE5       30.17S
TUSCALOOSA     LGT RAIN  72  69  90 S3        30.18S
$$

...GULF COAST WEATHER...

CITY           SKY/WX    TMP DP  RH WIND       PRES   REMARKS
GULFPORT       MOSUNNY   85  72  65 S8        30.11S HX  91
PASCAGOULA     LGT RAIN  75  72  90 S5        30.12S
MOBILE         PTSUNNY   83  72  69 SE9       30.13F
GULF SHORES    CLOUDY    80  74  82 SE10      30.13S
PENSACOLA      CLOUDY    80  74  81 SE12      30.14R
DESTIN         MOSUNNY   84  72  67 SE9       30.15S
PANAMA CITY    PTSUNNY   83  74  74 S12       30.14S
APPALACHICOLA  MOSUNNY   88  71  57 S12       30.15S HX  94
$$



USA.gov is the U.S. government's official web portal to all federal, state and local government web resources and services.